SHT4H EGLL-EGAC

Flight info

Callsign SHT4H
Flight time 0h 56m
Altitude 36000
Route ULTIB1J ULTIB T420 TNT UL28 RODOL UM65 TENSO L603 BELOX DCT REMSI DCT NINEB M148 MAGEE DCT
Aircraft A320/M-SDE3FGHIJ1KRWXY/SB1

Departure

Time 2026-04-20 06:35
Airport London Heathrow Airport (EGLL)

Arrival

Time 2026-04-20 07:31
Airport George Best Belfast City Airport (EGAC)
Time Latitude Longitude Altitude Speed Heading
2026-04-20 05:45 51.47233 -0.48585 86 ft 0 kts 270°
2026-04-20 06:22 51.47233 -0.48548 88 ft 4 kts 270°
2026-04-20 06:23 51.47233 -0.48512 89 ft 4 kts 266°
2026-04-20 06:23 51.47241 -0.48479 89 ft 4 kts 205°
2026-04-20 06:23 51.47264 -0.48473 90 ft 4 kts 180°
2026-04-20 06:23 51.47272 -0.48473 86 ft 0 kts 180°
2026-04-20 06:27 51.47264 -0.48473 76 ft 3 kts 180°
2026-04-20 06:27 51.47252 -0.48473 93 ft 3 kts 180°
2026-04-20 06:27 51.47223 -0.48473 86 ft 6 kts 180°
2026-04-20 06:28 51.47175 -0.48473 86 ft 8 kts 180°
2026-04-20 06:28 51.47106 -0.48472 86 ft 11 kts 180°
2026-04-20 06:28 51.47015 -0.48471 88 ft 15 kts 179°
2026-04-20 06:28 51.46904 -0.48470 87 ft 18 kts 180°
2026-04-20 06:29 51.46788 -0.48469 86 ft 17 kts 179°
2026-04-20 06:29 51.46665 -0.48468 86 ft 18 kts 180°
2026-04-20 06:29 51.46596 -0.48467 86 ft 2 kts 179°
2026-04-20 06:32 51.46595 -0.48467 86 ft 1 kts 179°
2026-04-20 06:32 51.46578 -0.48467 86 ft 4 kts 179°
2026-04-20 06:33 51.46543 -0.48467 86 ft 6 kts 179°
2026-04-20 06:33 51.46490 -0.48463 86 ft 9 kts 167°
2026-04-20 06:33 51.46477 -0.48404 87 ft 0 kts 89°
2026-04-20 06:34 51.46483 -0.47333 89 ft 113 kts 90°
2026-04-20 06:35 51.46491 -0.45798 112 ft 156 kts 89°
2026-04-20 06:35 51.46488 -0.44137 735 ft 147 kts 90°
2026-04-20 06:35 51.46494 -0.42434 1158 ft 163 kts 84°
2026-04-20 06:35 51.46912 -0.40648 1434 ft 184 kts 52°
2026-04-20 06:36 51.47802 -0.38966 1756 ft 210 kts 49°
2026-04-20 06:36 51.48804 -0.37075 2205 ft 234 kts 49°
2026-04-20 06:36 51.49883 -0.35025 2946 ft 244 kts 49°
2026-04-20 06:36 51.50971 -0.32940 3927 ft 247 kts 49°
2026-04-20 06:37 51.52042 -0.30761 4877 ft 251 kts 58°
2026-04-20 06:37 51.52718 -0.28134 5696 ft 259 kts 69°
2026-04-20 06:37 51.53304 -0.25391 5949 ft 259 kts 70°
2026-04-20 06:37 51.53878 -0.22645 6009 ft 259 kts 70°
2026-04-20 06:38 51.54631 -0.20032 6014 ft 257 kts 49°
2026-04-20 06:38 51.56086 -0.18516 6012 ft 257 kts 14°
2026-04-20 06:38 51.57860 -0.18695 6033 ft 261 kts 338°
2026-04-20 06:38 51.59390 -0.20314 6035 ft 266 kts 323°
2026-04-20 06:39 51.60808 -0.22253 6036 ft 267 kts 320°
2026-04-20 06:39 51.62250 -0.24129 6038 ft 266 kts 326°
2026-04-20 06:39 51.63764 -0.25773 6038 ft 265 kts 330°
2026-04-20 06:39 51.65335 -0.27331 6038 ft 265 kts 331°
2026-04-20 06:40 51.66928 -0.28852 6145 ft 269 kts 332°
2026-04-20 06:40 51.68557 -0.30390 7054 ft 270 kts 331°
2026-04-20 06:40 51.70176 -0.31923 8039 ft 269 kts 331°
2026-04-20 06:40 51.71790 -0.33460 9019 ft 269 kts 330°
2026-04-20 06:41 51.73399 -0.35005 9993 ft 268 kts 329°
2026-04-20 06:41 51.74992 -0.36546 10701 ft 277 kts 329°
2026-04-20 06:41 51.76715 -0.38215 10937 ft 300 kts 329°
2026-04-20 06:41 51.78554 -0.39997 11324 ft 314 kts 329°
2026-04-20 06:42 51.80443 -0.41827 12019 ft 318 kts 329°
2026-04-20 06:42 51.82364 -0.43688 12703 ft 324 kts 329°
2026-04-20 06:42 51.84312 -0.45576 13411 ft 328 kts 329°
2026-04-20 06:42 51.86279 -0.47483 14128 ft 331 kts 329°
2026-04-20 06:43 51.88239 -0.49386 14773 ft 334 kts 329°
2026-04-20 06:43 51.90238 -0.51331 15423 ft 336 kts 328°
2026-04-20 06:43 51.92251 -0.53291 16100 ft 338 kts 328°
2026-04-20 06:43 51.94273 -0.55263 16754 ft 340 kts 328°
2026-04-20 06:44 51.96301 -0.57246 17416 ft 342 kts 328°
2026-04-20 06:44 51.98347 -0.59252 18083 ft 344 kts 328°
2026-04-20 06:44 52.00382 -0.61246 18731 ft 347 kts 328°
2026-04-20 06:44 52.02453 -0.63275 19347 ft 348 kts 328°
2026-04-20 06:45 52.04533 -0.65315 20008 ft 350 kts 328°
2026-04-20 06:45 52.06637 -0.67377 20602 ft 353 kts 328°
2026-04-20 06:45 52.08749 -0.69448 21206 ft 356 kts 327°
2026-04-20 06:45 52.10876 -0.71534 21816 ft 358 kts 327°
2026-04-20 06:46 52.13013 -0.73634 22406 ft 359 kts 327°
2026-04-20 06:46 52.15161 -0.75750 22982 ft 361 kts 327°
2026-04-20 06:46 52.17290 -0.77854 23540 ft 363 kts 326°
2026-04-20 06:46 52.19456 -0.80001 24057 ft 365 kts 326°
2026-04-20 06:47 52.21634 -0.82160 24505 ft 367 kts 326°
2026-04-20 06:47 52.23825 -0.84333 24976 ft 368 kts 326°
2026-04-20 06:47 52.26019 -0.86508 25426 ft 369 kts 325°
2026-04-20 06:47 52.28215 -0.88689 25895 ft 370 kts 326°
2026-04-20 06:48 52.30426 -0.90889 26241 ft 374 kts 325°
2026-04-20 06:48 52.32657 -0.93111 26613 ft 377 kts 325°
2026-04-20 06:48 52.34875 -0.95320 27024 ft 378 kts 325°
2026-04-20 06:48 52.37133 -0.97572 27434 ft 380 kts 324°
2026-04-20 06:49 52.39396 -0.99828 27837 ft 381 kts 324°
2026-04-20 06:49 52.41664 -1.02088 28315 ft 381 kts 324°
2026-04-20 06:49 52.43931 -1.04352 28730 ft 382 kts 323°
2026-04-20 06:49 52.46204 -1.06627 29131 ft 383 kts 323°
2026-04-20 06:50 52.48457 -1.08891 29517 ft 384 kts 323°
2026-04-20 06:50 52.50741 -1.11190 29894 ft 386 kts 323°
2026-04-20 06:50 52.53035 -1.13506 30273 ft 389 kts 323°
2026-04-20 06:50 52.55363 -1.15861 30473 ft 394 kts 324°
2026-04-20 06:51 52.57706 -1.18227 30811 ft 394 kts 324°
2026-04-20 06:51 52.60024 -1.20566 31180 ft 394 kts 324°
2026-04-20 06:51 52.62366 -1.22928 31551 ft 394 kts 324°
2026-04-20 06:51 52.64709 -1.25295 31933 ft 394 kts 324°
2026-04-20 06:52 52.67054 -1.27671 32316 ft 394 kts 324°
2026-04-20 06:52 52.69395 -1.30047 32703 ft 394 kts 325°
2026-04-20 06:52 52.71705 -1.32391 33087 ft 394 kts 325°
2026-04-20 06:52 52.74049 -1.34769 33538 ft 395 kts 325°
2026-04-20 06:53 52.76393 -1.37156 33964 ft 395 kts 326°
2026-04-20 06:53 52.78756 -1.39567 34155 ft 401 kts 326°
2026-04-20 06:53 52.81102 -1.41967 34411 ft 403 kts 326°
2026-04-20 06:53 52.83492 -1.44416 34691 ft 405 kts 326°
2026-04-20 06:54 52.85899 -1.46882 34968 ft 406 kts 326°
2026-04-20 06:54 52.88303 -1.49347 35238 ft 407 kts 326°
2026-04-20 06:54 52.90716 -1.51822 35478 ft 408 kts 326°
2026-04-20 06:54 52.92317 -1.53462 35701 ft 407 kts 326°
2026-04-20 06:55 52.95506 -1.56744 36113 ft 407 kts 326°
2026-04-20 06:55 52.97913 -1.59233 36287 ft 408 kts 326°
2026-04-20 06:55 53.00338 -1.61744 36352 ft 413 kts 326°
2026-04-20 06:56 53.04425 -1.65977 36327 ft 418 kts 326°
2026-04-20 06:56 53.09371 -1.71116 36325 ft 419 kts 326°
2026-04-20 06:57 53.14323 -1.76273 36325 ft 419 kts 326°
2026-04-20 06:57 53.19256 -1.81414 36326 ft 419 kts 326°
2026-04-20 06:58 53.24210 -1.86598 36350 ft 420 kts 327°
2026-04-20 06:58 53.29276 -1.91539 36329 ft 422 kts 329°
2026-04-20 06:59 53.34400 -1.96267 36325 ft 423 kts 330°
2026-04-20 06:59 53.39555 -2.01080 36323 ft 424 kts 329°
2026-04-20 07:00 53.44662 -2.05956 36326 ft 424 kts 329°
2026-04-20 07:00 53.49796 -2.10882 36322 ft 423 kts 329°
2026-04-20 07:01 53.54909 -2.15793 36345 ft 423 kts 329°
2026-04-20 07:01 53.59404 -2.21985 36341 ft 420 kts 309°
2026-04-20 07:02 53.62301 -2.30501 36333 ft 422 kts 292°
2026-04-20 07:02 53.64420 -2.39736 36331 ft 422 kts 292°
2026-04-20 07:03 53.66538 -2.48979 36334 ft 422 kts 292°
2026-04-20 07:03 53.68633 -2.58185 36333 ft 423 kts 292°
2026-04-20 07:04 53.70727 -2.67456 36331 ft 421 kts 292°
2026-04-20 07:04 53.72804 -2.76681 36346 ft 422 kts 292°
2026-04-20 07:05 53.74893 -2.85975 36331 ft 423 kts 292°
2026-04-20 07:05 53.76976 -2.95296 36331 ft 424 kts 292°
2026-04-20 07:06 53.79045 -3.04584 36329 ft 424 kts 292°
2026-04-20 07:06 53.81121 -3.13939 36313 ft 424 kts 292°
2026-04-20 07:07 53.83180 -3.23287 36334 ft 423 kts 292°
2026-04-20 07:07 53.85227 -3.32622 36342 ft 422 kts 292°
2026-04-20 07:08 53.87261 -3.41958 36341 ft 422 kts 292°
2026-04-20 07:08 53.89278 -3.51242 36344 ft 421 kts 292°
2026-04-20 07:08 53.90293 -3.55909 36129 ft 420 kts 292°
2026-04-20 07:09 53.91299 -3.60556 34849 ft 423 kts 292°
2026-04-20 07:09 53.92317 -3.65268 33299 ft 426 kts 292°
2026-04-20 07:09 53.93341 -3.70026 32087 ft 427 kts 292°
2026-04-20 07:09 53.94341 -3.74700 31782 ft 415 kts 292°
2026-04-20 07:10 53.95303 -3.79209 31319 ft 408 kts 292°
2026-04-20 07:10 53.96401 -3.83629 30756 ft 402 kts 299°
2026-04-20 07:10 53.97782 -3.87734 30168 ft 398 kts 301°
2026-04-20 07:10 53.99164 -3.91796 29590 ft 393 kts 301°
2026-04-20 07:11 54.00514 -3.95784 29052 ft 387 kts 301°
2026-04-20 07:11 54.01828 -3.99689 28522 ft 382 kts 301°
2026-04-20 07:11 54.03137 -4.03589 27983 ft 377 kts 301°
2026-04-20 07:11 54.04433 -4.07453 27467 ft 373 kts 301°
2026-04-20 07:12 54.05708 -4.11261 26957 ft 369 kts 301°
2026-04-20 07:12 54.07092 -4.14914 26456 ft 364 kts 306°
2026-04-20 07:12 54.08550 -4.18420 25954 ft 361 kts 306°
2026-04-20 07:12 54.10001 -4.21906 25481 ft 358 kts 306°
2026-04-20 07:13 54.11418 -4.25316 25008 ft 355 kts 307°
2026-04-20 07:13 54.12841 -4.28754 24553 ft 352 kts 307°
2026-04-20 07:13 54.14245 -4.32156 24107 ft 349 kts 307°
2026-04-20 07:13 54.15637 -4.35529 23627 ft 347 kts 307°
2026-04-20 07:14 54.17021 -4.38884 23201 ft 344 kts 307°
2026-04-20 07:14 54.18374 -4.42168 22760 ft 340 kts 307°
2026-04-20 07:14 54.19725 -4.45460 22314 ft 336 kts 307°
2026-04-20 07:14 54.21062 -4.48717 21896 ft 332 kts 307°
2026-04-20 07:15 54.22381 -4.51934 21462 ft 329 kts 307°
2026-04-20 07:15 54.23688 -4.55126 21026 ft 325 kts 307°
2026-04-20 07:15 54.24987 -4.58294 20587 ft 323 kts 307°
2026-04-20 07:15 54.26270 -4.61433 20141 ft 321 kts 307°
2026-04-20 07:16 54.27541 -4.64553 19692 ft 319 kts 307°
2026-04-20 07:16 54.28790 -4.67623 19242 ft 318 kts 307°
2026-04-20 07:16 54.30050 -4.70722 18791 ft 317 kts 307°
2026-04-20 07:16 54.31310 -4.73831 18293 ft 316 kts 307°
2026-04-20 07:17 54.32565 -4.76927 17826 ft 314 kts 307°
2026-04-20 07:17 54.33806 -4.79995 17349 ft 312 kts 307°
2026-04-20 07:17 54.35037 -4.83041 16906 ft 309 kts 307°
2026-04-20 07:17 54.36243 -4.86025 16451 ft 307 kts 307°
2026-04-20 07:18 54.37457 -4.89033 16011 ft 306 kts 307°
2026-04-20 07:18 54.38664 -4.92023 15579 ft 304 kts 307°
2026-04-20 07:18 54.39870 -4.95009 15140 ft 303 kts 307°
2026-04-20 07:18 54.41071 -4.97997 14683 ft 303 kts 307°
2026-04-20 07:19 54.42265 -5.00973 14239 ft 302 kts 306°
2026-04-20 07:19 54.43453 -5.03949 13765 ft 302 kts 306°
2026-04-20 07:19 54.44641 -5.06918 13306 ft 300 kts 306°
2026-04-20 07:19 54.45813 -5.09821 12869 ft 299 kts 307°
2026-04-20 07:20 54.47002 -5.12755 12418 ft 298 kts 307°
2026-04-20 07:20 54.48184 -5.15672 12005 ft 297 kts 306°
2026-04-20 07:20 54.49363 -5.18585 11568 ft 296 kts 306°
2026-04-20 07:20 54.50590 -5.21427 11135 ft 295 kts 313°
2026-04-20 07:21 54.52095 -5.23819 10734 ft 292 kts 323°
2026-04-20 07:21 54.53657 -5.25891 10610 ft 282 kts 322°
2026-04-20 07:21 54.55181 -5.27951 10404 ft 275 kts 322°
2026-04-20 07:21 54.56671 -5.29981 10230 ft 270 kts 322°
2026-04-20 07:22 54.58149 -5.31999 10086 ft 271 kts 322°
2026-04-20 07:22 54.59638 -5.34037 9682 ft 275 kts 322°
2026-04-20 07:22 54.61143 -5.36094 9305 ft 274 kts 322°
2026-04-20 07:22 54.62654 -5.38159 8799 ft 277 kts 322°
2026-04-20 07:23 54.64135 -5.40185 8531 ft 273 kts 322°
2026-04-20 07:23 54.65615 -5.42209 8164 ft 269 kts 322°
2026-04-20 07:23 54.67079 -5.44215 7532 ft 268 kts 322°
2026-04-20 07:23 54.68539 -5.46215 6904 ft 266 kts 322°
2026-04-20 07:24 54.69988 -5.48201 6258 ft 265 kts 322°
2026-04-20 07:24 54.71430 -5.50184 5611 ft 264 kts 322°
2026-04-20 07:24 54.72864 -5.52160 4978 ft 263 kts 322°
2026-04-20 07:24 54.74290 -5.54124 4350 ft 261 kts 322°
2026-04-20 07:25 54.75663 -5.56019 4023 ft 248 kts 322°
2026-04-20 07:25 54.76821 -5.58080 4010 ft 229 kts 306°
2026-04-20 07:25 54.77508 -5.60441 4004 ft 211 kts 289°
2026-04-20 07:25 54.77765 -5.62856 3961 ft 200 kts 274°
2026-04-20 07:26 54.77656 -5.65193 3881 ft 193 kts 259°
2026-04-20 07:26 54.77227 -5.67335 3694 ft 183 kts 245°
2026-04-20 07:26 54.76555 -5.69123 3503 ft 173 kts 231°
2026-04-20 07:26 54.75711 -5.70529 3279 ft 162 kts 218°
2026-04-20 07:27 54.74835 -5.71599 3078 ft 152 kts 216°
2026-04-20 07:27 54.73979 -5.72631 2880 ft 148 kts 216°
2026-04-20 07:27 54.73136 -5.73648 2681 ft 147 kts 216°
2026-04-20 07:27 54.72299 -5.74656 2475 ft 146 kts 216°
2026-04-20 07:28 54.71462 -5.75664 2272 ft 146 kts 216°
2026-04-20 07:28 54.70638 -5.76656 2074 ft 146 kts 216°
2026-04-20 07:28 54.69803 -5.77660 1867 ft 146 kts 216°
2026-04-20 07:28 54.68971 -5.78660 1663 ft 144 kts 216°
2026-04-20 07:29 54.68146 -5.79651 1453 ft 143 kts 216°
2026-04-20 07:29 54.67329 -5.80633 1245 ft 142 kts 216°
2026-04-20 07:29 54.66530 -5.81592 1047 ft 141 kts 216°
2026-04-20 07:29 54.65727 -5.82556 845 ft 140 kts 216°
2026-04-20 07:30 54.64933 -5.83508 649 ft 137 kts 214°
2026-04-20 07:30 54.64152 -5.84444 463 ft 136 kts 214°
2026-04-20 07:30 54.63376 -5.85373 281 ft 135 kts 214°
2026-04-20 07:30 54.62602 -5.86301 100 ft 135 kts 214°
2026-04-20 07:31 54.61853 -5.87203 19 ft 119 kts 213°
2026-04-20 07:31 54.61377 -5.87772 14 ft 29 kts 214°
2026-04-20 07:31 54.61294 -5.87750 15 ft 11 kts 126°
2026-04-20 07:31 54.61265 -5.87678 16 ft 7 kts 124°
2026-04-20 07:32 54.61260 -5.87607 17 ft 6 kts 67°
2026-04-20 07:32 54.61293 -5.87555 18 ft 7 kts 38°
2026-04-20 07:32 54.61336 -5.87502 20 ft 8 kts 34°
2026-04-20 07:32 54.61386 -5.87437 21 ft 10 kts 45°
2026-04-20 07:33 54.61441 -5.87332 21 ft 12 kts 36°
2026-04-20 07:33 54.61505 -5.87254 21 ft 10 kts 34°
2026-04-20 07:33 54.61535 -5.87187 21 ft 3 kts 112°
2026-04-20 07:33 54.61521 -5.87166 21 ft 0 kts 150°
2026-04-20 07:34 54.61519 -5.87169 21 ft 1 kts 184°
2026-04-20 07:34 54.61514 -5.87188 21 ft 3 kts 240°
2026-04-20 07:34 54.61489 -5.87204 21 ft 4 kts 175°
2026-04-20 07:35 54.61472 -5.87195 21 ft 1 kts 160°
2026-04-20 07:35 54.61466 -5.87191 21 ft 1 kts 158°
2026-04-20 07:35 54.61463 -5.87188 21 ft 0 kts 158°